User: anonymous   Login
Location: Unspecified
(0.0000°N, 0.0000°E)
Time: 00:55:43
(UTC+00:00)
Language:

STARLINK-5285 - Orbit

View from above orbital plane
View from above orbital plane
View from above satellite
View from above satellite

Ground track
Ground track

The orbit is defined by the following mean orbital elements,

1 55296U          26145.54112122 +.00000000 +00000-0 +48740-4 0 00003
2 55296  69.9987 190.5674 0003652 266.5318  93.5424 14.98328913    01
Epoch (UTC): 25 May 2026 12:59:12
Eccentricity: 0.0003652
inclination: 69.9987°
perigee height: 570 km
apogee height: 575 km
right ascension of ascending node: 190.5674°
argument of perigee: 266.5318°
revolutions per day: 14.98328913
mean anomaly at epoch: 93.5424°

The dashed part of the orbit path shows where the satellite is in the earth's shadow,  

DLR